Charter Quote
Worldwide +1-877-727-2538 Call
Select Language Lang
SAFETY RELIABILITY EXPERIENCE

Private Jet Charter Services - Safdarjung Airport (VIDD)

Paramount Business Jets offers private jet charter flights and luxury airliner charters to and from Safdarjung Airport.

AIRPORT INFORMATION
ICAOVIDD
LOCATIONDelhi (New Delhi), India
FACILITY TYPEAIRPORT
Runway Length (ft) Width (ft) Surface Type Elevation (ft)
30/12 4520 150 ASP 695.54098

At Paramount Business Jets you can hire chartered private jets to and from Safdarjung Airport with as little as 4 hours of notice. All flights booked via Paramount Business Jets are operated by certified direct air carriers that meet and exceed the FAA part 135 and 121 protocol or a foreign equivalent safety authority. Furthermore, Paramount Business Jets subscribes to ARGUS for their third party safety checks of operators, aircraft, and crews prior each and every flight to and from Safdarjung Airport and worldwide.

  • Quote a trip using Safdarjung Airport or call us 24/7 - 365 days a year at +1-877-727-2538.
Questions? Call +1-877-727-2538

METAR Weather Data at Safdarjung Airport, VIDD

STATIONVIDD
OBSERVEDTue Dec 10, 06:00 UTC
NOWTue Dec 10, 06:06 UTC
AGE6 min ago
WINDSW at 6 mph
VISIBILITY1.9 miles
CONDITIONSsmoke
METARVIDD 100600Z 23005KT 1200 FU NSC 21/10 Q1018 BECMG 1500 FU

Call us on +1-877-727-2538 (24 Hours) to Hire a Private Jet or Get a Quick Quote.

Find Airports Near any Location

Processing
...